Regional Weather Roundup
Issued by NWS

Home | Current Version | Previous Version | Graphics & Text | Print | Product List | Glossary On
Versions: 1 2 3 4 5 6 7 8 9 10 11 12 13 14 15 16 17 18 19 20 21 22 23 24 25 26 27 28 29 30 31 32 33 34 35 36 37 38 39 40 41 42 43 44 45 46 47 48 49 50
140
ASUS45 KSLC 260810
RWRUT

UTAH REGIONAL WEATHER ROUNDUP
NATIONAL WEATHER SERVICE SALT LAKE CITY UT
200 AM MDT WED APR 26 2017

UTZ001>011-023>025-260900-

NORTHERN UTAH

CITY           SKY/WX    TMP DP  RH WIND       PRES   REMARKS
BRIGHAM CITY   CLOUDY    48  33  57 S3        29.92F
HILL AFB       CLOUDY    42  32  68 E8        29.92F
LOGAN          CLOUDY    43  38  82 E5        29.92S
OGDEN          CLOUDY    42  34  73 S7        29.92S
SALT LAKE CITY MOCLDY    44  36  73 SE8       29.93S
TOOELE VALLEY  MOCLDY    43  34  70 S12       29.94S
WENDOVER       CLOUDY    51  26  37 SW5       29.94R
HEBER CITY     PTCLDY    30  28  93 E3        29.95S
WEST JORDAN    CLOUDY    45  41  86 S6        29.94S

$$

UTZ011>015-024>027-260900-

CENTRAL/NORTHEAST UTAH

CITY           SKY/WX    TMP DP  RH WIND       PRES   REMARKS
PROVO AIRPORT  CLOUDY    40  35  83 CALM      29.97R
MOAB/CANYONLAN CLEAR     40  32  73 NW5       29.89S
DELTA          PTCLDY    32  30  93 S9        29.96S WCI  24
PRICE          PTCLDY    40  27  59 NW9G21    29.92S WCI  34
RICHFIELD      CLEAR     30  27  86 CALM      30.00R
ROOSEVELT      CLEAR     34  28  80 W5        29.92S WCI  30
VERNAL         CLOUDY    36  30  79 W3        29.90S

$$

UTZ013>016-019>022-027-260900-

SOUTHERN UTAH

CITY           SKY/WX    TMP DP  RH WIND       PRES   REMARKS
BRYCE CANYON   CLEAR     25  16  68 W8        30.00R WCI  16
CEDAR CITY     CLEAR     33  24  69 CALM      29.96R
MILFORD        CLEAR     34  24  67 CALM      29.97R
ST GEORGE      MOSUNNY   51  22  31 CALM      29.92R
HANKSVILLE     CLEAR     45  25  45 NW7       29.93S
KANAB          CLEAR     34  23  64 CALM      30.00S
BLANDING       CLEAR     41  20  44 CALM      29.97S

$$

REGIONAL REPORTS     COLORADO/ARIZONA

CITY           SKY/WX    TMP DP  RH WIND       PRES   REMARKS
CRAIG, CO      CLEAR     30  25  81 SW5       29.92R WCI  25
GRAND JUNCTION CLOUDY    39  35  86 N7        29.90R WCI  34
RIFLE, CO      CLOUDY    38  33  82 W6        29.90S WCI  33
MONTROSE, CO   CLOUDY    38  33  82 E3        29.93S
CORTEZ, CO     CLEAR     32  27  81 NE6       29.90R WCI  26
COLORADO CITY    N/A     36  21  55 SE5       29.99S WCI  32
PAGE, AZ       CLEAR     52  20  28 W6        29.91R
GRAND CANYON   CLEAR     28  15  58 CALM      29.99R
KINGMAN, AZ    CLEAR     45  20  36 SE5       29.91R
FLAGSTAFF, AZ  CLEAR     32  16  51 CALM      29.97F

$$

REGIONAL REPORTS    NEVADA/IDAHO/WYOMING

CITY           SKY/WX    TMP DP  RH WIND       PRES   REMARKS
LAS VEGAS, NV  PTCLDY    64  14  14 SW6       29.86S
ELY, NY        CLOUDY    33  23  66 S8        30.01R WCI  26
ELKO, NV       CLOUDY    44  30  57 SW7       29.97S
POCATELLO, ID  CLOUDY    43  30  60 S10       29.89S
BURLEY, ID     CLOUDY    42  31  64 SW8       29.89F
FORT BRIDGER,    N/A     33  30  88 W9        29.95F WCI  26
EVANSTON, WY   CLOUDY    30  28  92 SW9       29.93F WCI  22
ROCK SPRINGS,  CLOUDY    34  31  88 SW9       29.89F WCI  27
KEMMERER, WY     N/A     32  30  93 SW7       29.92F WCI  26

$$




USA.gov is the U.S. government's official web portal to all federal, state and local government web resources and services.